SCOUT X-4 DEB, 976

Orbit data source: Space-Track

SCOUT X-4 DEB, 976 is space debris in LEO originally from a launch on Sat, 10 Oct 1964 UTC launched from the Air Force Western Test Range (AFWTR). Debris objects in space refer to the collection of defunct objects orbiting the Earth. Examples of debris include non-operational satellites, rocket bodies, and fragments generated from explosions, collisions, or faulty payload assembly.

Loading next visibility...
Identifier
976, 1964-064C
Orbit
LEO
Country
Flag of USUS
Related business
Manufacturer
APL
Mission
Spacecraft
Bus & Motor
Unknown
Mass
Unknown
Launch date (UTC)
1964-10-10 (62 years ago)
Launch vehicle
Unknown
Launch site
Air Force Western Test Range (AFWTR)
Object type
Payload
Rocket body
Debris
Shape & HBR
Unknown shape, 0.1 m
Radar Cross Section
Small (<0.1 m²)

Expand to show TLE details & history
Last TLE update: 2 days ago

TLE from 2 days ago
0 SCOUT X-4 DEB
1 00976U 64064C   26124.41799747  .00000505  00000-0  27644-3 0  9991
2 00976  79.3168  10.1035 0112553 153.5834 207.1130 14.08077196136810
Epoch: 2026-05-04T10:01Z
TLE epoch observation values (Epoch: 2026-05-04T10:01:54.981Z)
Latitude
0.00004°
Longitude
-2.68306°
Altitude
941.565 km
Speed
7.344 km/s
True Right ascension
00h 40m 24s
True Declination
0° 00' 00"
Sunlit
Object was in daylight at epoch
Visualization orbit readout
Latitude
Unknown
Longitude
Unknown
Altitude
Unknown
Speed
Unknown
Apparent Right ascension
Unknown
Apparent Declination
Unknown
Sunlit
N/A
Visualization observer readout
Local Sidereal Time
10:19:51
Azimuth
Unknown
Elevation
Unknown
Doppler factor
Unknown
Orbital elements
Apogee altitude
944.741 km
Perigee altitude
781.733 km
Semi-major axis
7,241.374 km
Eccentricity
0.01126
Inclination
79.3168°
RAAN
10.1035°
Arg. of periapsis
153.5834°
True anomaly
206.53248°
Mean anomaly
207.113°
Eccentric anomaly
206.82202°
Mean motion
3.52218 °/min
Orbital period
102.21 mins
BSTAR
0.00027644
Loading maneuver chart data...
Computing Atmospheric mass density...
Loading historical data...
Loading historical data...
Loading historical data...
Loading historical data...
Loading historical data...
Loading historical data...
Loading historical data...
Other satellites on launch #64 in the year 1964 (1964-10-10 UTC)

Documentation

Showing up to 5 results
|